Time,TemperatureF,DewpointF,PressureIn,WindDirection,WindDirectionDegrees,WindSpeedMPH,WindSpeedGustMPH,Humidity,HourlyPrecipIn,Conditions,Clouds,dailyrainin,SoftwareType,DateUTC
2013-05-23 00:01:00,67.6,61.6,0.00,WSW,254,0.0,0.0,81,0.00,,---,0.00,VWS V13.01,2013-05-23 04:01:00,
2013-05-23 00:02:00,67.6,61.6,0.00,SW,217,0.0,2.7,81,0.00,,---,0.00,VWS V13.01,2013-05-23 04:02:00,
2013-05-23 00:03:00,67.6,61.6,0.00,WSW,249,3.6,3.6,81,0.00,,---,0.00,VWS V13.01,2013-05-23 04:03:00,
2013-05-23 00:07:00,68.0,61.6,0.00,SW,222,0.0,4.0,80,0.00,,---,0.00,VWS V13.01,2013-05-23 04:07:00,
2013-05-23 00:12:00,68.2,61.1,0.00,SSW,213,7.6,7.6,78,0.00,,---,0.00,VWS V13.01,2013-05-23 04:12:00,
2013-05-23 00:17:00,68.2,60.7,0.00,WSW,244,5.4,7.6,77,0.00,,---,0.00,VWS V13.01,2013-05-23 04:17:00,
2013-05-23 00:23:00,68.4,60.5,0.00,West,268,2.7,7.6,76,0.00,,---,0.00,VWS V13.01,2013-05-23 04:23:00,
2013-05-23 00:28:00,68.5,60.3,0.00,SW,233,4.5,8.1,75,0.00,,---,0.00,VWS V13.01,2013-05-23 04:28:00,
2013-05-23 00:33:00,68.5,59.9,0.00,SW,236,3.6,8.7,74,0.00,,---,0.00,VWS V13.01,2013-05-23 04:33:00,
2013-05-23 00:38:00,68.7,59.7,0.00,WSW,252,2.2,10.5,73,0.00,,---,0.00,VWS V13.01,2013-05-23 04:38:00,
2013-05-23 00:43:00,68.7,59.3,0.00,West,267,3.1,8.3,72,0.00,,---,0.00,VWS V13.01,2013-05-23 04:43:00,
2013-05-23 00:48:00,68.9,59.5,0.00,SW,235,5.4,8.3,72,0.00,,---,0.00,VWS V13.01,2013-05-23 04:48:00,
2013-05-23 00:53:00,68.7,59.3,0.00,WSW,243,4.9,7.6,72,0.00,,---,0.00,VWS V13.01,2013-05-23 04:53:00,
2013-05-23 00:58:00,68.9,59.5,0.00,WSW,251,8.7,8.7,72,0.00,,---,0.00,VWS V13.01,2013-05-23 04:58:00,
2013-05-23 01:03:00,68.9,59.5,0.00,SSW,196,3.1,10.1,72,0.00,,---,0.00,VWS V13.01,2013-05-23 05:03:00,
2013-05-23 01:08:00,68.9,59.5,0.00,WSW,250,0.0,10.1,72,0.00,,---,0.00,VWS V13.01,2013-05-23 05:08:00,
2013-05-23 01:13:00,68.7,59.3,0.00,WSW,252,2.7,8.7,72,0.00,,---,0.00,VWS V13.01,2013-05-23 05:13:00,
2013-05-23 01:18:00,68.7,59.3,0.00,WSW,246,0.0,8.7,72,0.00,,---,0.00,VWS V13.01,2013-05-23 05:18:00,
2013-05-23 01:23:00,68.7,59.3,0.00,SW,234,0.0,7.2,72,0.00,,---,0.00,VWS V13.01,2013-05-23 05:23:00,
2013-05-23 01:28:00,68.7,59.3,0.00,SW,229,3.6,9.6,72,0.00,,---,0.00,VWS V13.01,2013-05-23 05:28:00,
2013-05-23 01:33:00,68.5,59.2,0.00,West,264,4.0,6.3,72,0.00,,---,0.00,VWS V13.01,2013-05-23 05:33:00,
2013-05-23 01:38:00,68.5,59.2,0.00,WSW,249,0.0,6.3,72,0.00,,---,0.00,VWS V13.01,2013-05-23 05:38:00,
2013-05-23 01:43:00,68.5,59.2,0.00,WSW,258,3.1,7.6,72,0.00,,---,0.00,VWS V13.01,2013-05-23 05:43:00,
2013-05-23 01:48:00,68.4,59.0,0.00,SW,230,3.1,7.6,72,0.00,,---,0.00,VWS V13.01,2013-05-23 05:48:00,
2013-05-23 01:53:00,68.4,59.4,0.00,WSW,244,0.0,8.3,73,0.00,,---,0.00,VWS V13.01,2013-05-23 05:53:00,
2013-05-23 01:58:00,68.4,59.4,0.00,SW,215,4.9,8.3,73,0.00,,---,0.00,VWS V13.01,2013-05-23 05:58:00,
2013-05-23 02:03:00,68.4,59.4,0.00,SW,233,2.7,6.3,73,0.00,,---,0.00,VWS V13.01,2013-05-23 06:03:00,
2013-05-23 02:09:00,68.4,59.4,0.00,WSW,249,4.9,6.7,73,0.00,,---,0.00,VWS V13.01,2013-05-23 06:09:00,
2013-05-23 02:14:00,68.4,59.4,0.00,WSW,243,4.0,5.4,73,0.00,,---,0.00,VWS V13.01,2013-05-23 06:14:00,
2013-05-23 02:19:00,68.4,59.4,0.00,WSW,247,2.7,6.3,73,0.00,,---,0.00,VWS V13.01,2013-05-23 06:19:00,
2013-05-23 02:24:00,68.4,59.4,0.00,WSW,250,3.6,5.8,73,0.00,,---,0.00,VWS V13.01,2013-05-23 06:24:00,
2013-05-23 02:29:00,68.4,59.4,0.00,SW,214,3.1,8.3,73,0.00,,---,0.00,VWS V13.01,2013-05-23 06:29:00,
2013-05-23 02:34:00,68.4,59.4,0.00,WSW,242,2.7,7.2,73,0.00,,---,0.00,VWS V13.01,2013-05-23 06:34:00,
2013-05-23 02:39:00,68.4,59.4,0.00,SW,235,0.0,7.2,73,0.00,,---,0.00,VWS V13.01,2013-05-23 06:39:00,
2013-05-23 02:44:00,68.2,59.2,0.00,WSW,252,3.1,5.4,73,0.00,,---,0.00,VWS V13.01,2013-05-23 06:44:00,
2013-05-23 02:49:00,68.2,59.2,0.00,WSW,245,3.1,5.8,73,0.00,,---,0.00,VWS V13.01,2013-05-23 06:49:00,
2013-05-23 02:54:00,68.2,59.2,0.00,WSW,246,2.2,8.1,73,0.00,,---,0.00,VWS V13.01,2013-05-23 06:54:00,
2013-05-23 02:59:00,68.2,58.8,0.00,WSW,240,2.7,8.1,72,0.00,,---,0.00,VWS V13.01,2013-05-23 06:59:00,
2013-05-23 03:04:00,68.2,58.8,0.00,WSW,253,3.1,5.4,72,0.00,,---,0.00,VWS V13.01,2013-05-23 07:04:00,
2013-05-23 03:09:00,68.2,59.2,0.00,West,265,0.0,5.4,73,0.00,,---,0.00,VWS V13.01,2013-05-23 07:09:00,
2013-05-23 03:14:00,67.8,59.6,0.00,WSW,250,0.0,0.0,75,0.00,,---,0.00,VWS V13.01,2013-05-23 07:14:00,
2013-05-23 03:19:00,67.8,60.0,0.00,WSW,254,4.0,5.4,76,0.00,,---,0.00,VWS V13.01,2013-05-23 07:19:00,
2013-05-23 03:24:00,67.8,60.3,0.00,West,261,2.7,3.6,77,0.00,,---,0.00,VWS V13.01,2013-05-23 07:24:00,
2013-05-23 03:29:00,67.8,60.7,0.00,SW,233,2.2,4.0,78,0.00,,---,0.00,VWS V13.01,2013-05-23 07:29:00,
2013-05-23 03:34:00,67.6,60.9,0.00,WSW,245,2.7,5.4,79,0.00,,---,0.00,VWS V13.01,2013-05-23 07:34:00,
2013-05-23 03:39:00,67.6,60.9,0.00,SW,235,0.0,5.4,79,0.00,,---,0.00,VWS V13.01,2013-05-23 07:39:00,
2013-05-23 03:44:00,67.5,60.7,0.00,WSW,246,0.0,0.0,79,0.00,,---,0.00,VWS V13.01,2013-05-23 07:44:00,
2013-05-23 03:49:00,67.5,61.1,0.00,WSW,246,0.0,0.0,80,0.00,,---,0.00,VWS V13.01,2013-05-23 07:49:00,
2013-05-23 03:55:00,67.5,61.1,0.00,WSW,246,0.0,0.0,80,0.00,,---,0.00,VWS V13.01,2013-05-23 07:55:00,
2013-05-23 04:00:00,67.3,61.3,0.00,WSW,246,0.0,0.0,81,0.00,,---,0.00,VWS V13.01,2013-05-23 08:00:00,
2013-05-23 04:06:00,67.1,61.1,0.00,WSW,254,0.0,0.0,81,0.00,,---,0.00,VWS V13.01,2013-05-23 08:06:00,
2013-05-23 04:11:00,67.1,61.1,0.00,WSW,255,3.1,4.0,81,0.00,,---,0.00,VWS V13.01,2013-05-23 08:11:00,
2013-05-23 04:16:00,67.3,60.5,0.00,WSW,242,3.1,4.0,79,0.00,,---,0.00,VWS V13.01,2013-05-23 08:16:00,
2013-05-23 04:21:00,67.5,60.0,0.00,WSW,248,7.2,7.2,77,0.00,,---,0.00,VWS V13.01,2013-05-23 08:21:00,
2013-05-23 04:26:00,67.5,59.6,0.00,WSW,249,3.6,8.3,76,0.00,,---,0.00,VWS V13.01,2013-05-23 08:26:00,
2013-05-23 04:31:00,67.5,59.6,0.00,WSW,248,5.4,7.6,76,0.00,,---,0.00,VWS V13.01,2013-05-23 08:31:00,
2013-05-23 04:36:00,67.5,59.3,0.00,WSW,254,3.1,10.1,75,0.00,,---,0.00,VWS V13.01,2013-05-23 08:36:00,
2013-05-23 04:41:00,67.5,59.3,0.00,West,260,6.3,6.3,75,0.00,,---,0.00,VWS V13.01,2013-05-23 08:41:00,
2013-05-23 04:46:00,67.5,59.3,0.00,WSW,252,3.1,11.0,75,0.00,,---,0.00,VWS V13.01,2013-05-23 08:46:00,
2013-05-23 04:51:00,67.3,59.5,0.00,WSW,245,3.1,5.4,76,0.00,,---,0.00,VWS V13.01,2013-05-23 08:51:00,
2013-05-23 04:56:00,67.3,59.5,0.00,WSW,239,3.1,6.3,76,0.00,,---,0.00,VWS V13.01,2013-05-23 08:56:00,
2013-05-23 05:01:00,67.3,59.5,0.00,WSW,245,2.7,5.8,76,0.00,,---,0.00,VWS V13.01,2013-05-23 09:01:00,
2013-05-23 05:06:00,67.3,59.8,0.00,WSW,251,0.0,5.8,77,0.00,,---,0.00,VWS V13.01,2013-05-23 09:06:00,
2013-05-23 05:11:00,67.1,59.7,0.00,SSW,206,0.0,0.0,77,0.00,,---,0.00,VWS V13.01,2013-05-23 09:11:00,
2013-05-23 05:16:00,67.1,59.7,0.00,WSW,253,0.0,0.0,77,0.00,,---,0.00,VWS V13.01,2013-05-23 09:16:00,
2013-05-23 05:21:00,67.1,59.7,0.00,WSW,252,0.0,0.0,77,0.00,,---,0.00,VWS V13.01,2013-05-23 09:21:00,
2013-05-23 05:26:00,66.9,59.5,0.00,WSW,243,0.0,4.0,77,0.00,,---,0.00,VWS V13.01,2013-05-23 09:26:00,
2013-05-23 05:31:00,67.1,58.9,0.00,West,274,3.1,6.7,75,0.00,,---,0.00,VWS V13.01,2013-05-23 09:31:00,
2013-05-23 05:36:00,67.1,58.9,0.00,SW,233,6.3,7.6,75,0.00,,---,0.00,VWS V13.01,2013-05-23 09:36:00,
2013-05-23 05:41:00,67.1,58.9,0.00,SSW,210,5.4,8.1,75,0.00,,---,0.00,VWS V13.01,2013-05-23 09:41:00,
2013-05-23 05:46:00,67.1,58.5,0.00,West,263,6.3,8.1,74,0.00,,---,0.00,VWS V13.01,2013-05-23 09:46:00,
2013-05-23 05:51:00,67.1,58.5,0.00,SW,219,5.8,6.7,74,0.00,,---,0.00,VWS V13.01,2013-05-23 09:51:00,
2013-05-23 05:57:00,67.1,58.5,0.00,SW,216,3.1,9.6,74,0.00,,---,0.00,VWS V13.01,2013-05-23 09:57:00,
2013-05-23 06:02:00,67.1,58.5,0.00,SW,217,5.4,7.2,74,0.00,,---,0.00,VWS V13.01,2013-05-23 10:02:00,
2013-05-23 06:07:00,67.1,58.5,0.00,SW,226,6.7,8.3,74,0.00,,---,0.00,VWS V13.01,2013-05-23 10:07:00,
2013-05-23 06:12:00,67.1,58.5,0.00,WSW,251,4.9,10.1,74,0.00,,---,0.00,VWS V13.01,2013-05-23 10:12:00,
2013-05-23 06:17:00,67.1,58.5,0.00,SW,229,5.8,10.1,74,0.00,,---,0.00,VWS V13.01,2013-05-23 10:17:00,
2013-05-23 06:22:00,67.1,58.5,0.00,SW,215,2.7,7.6,74,0.00,,---,0.00,VWS V13.01,2013-05-23 10:22:00,
2013-05-23 06:27:00,67.1,58.9,0.00,WSW,241,10.5,11.0,75,0.00,,---,0.00,VWS V13.01,2013-05-23 10:27:00,
2013-05-23 06:32:00,67.3,59.1,0.00,West,263,6.7,8.1,75,0.00,,---,0.00,VWS V13.01,2013-05-23 10:32:00,
2013-05-23 06:37:00,67.3,59.1,0.00,WSW,241,6.3,8.7,75,0.00,,---,0.00,VWS V13.01,2013-05-23 10:37:00,
2013-05-23 06:42:00,67.3,59.1,0.00,WSW,245,4.9,8.3,75,0.00,,---,0.00,VWS V13.01,2013-05-23 10:42:00,
2013-05-23 06:47:00,67.3,59.1,0.00,SW,236,7.2,8.7,75,0.00,,---,0.00,VWS V13.01,2013-05-23 10:47:00,
2013-05-23 06:52:00,67.3,59.1,0.00,WSW,249,4.0,6.3,75,0.00,,---,0.00,VWS V13.01,2013-05-23 10:52:00,
2013-05-23 06:57:00,67.3,59.1,0.00,West,263,3.6,7.6,75,0.00,,---,0.00,VWS V13.01,2013-05-23 10:57:00,
2013-05-23 07:02:00,67.5,58.9,0.00,SW,232,8.1,8.1,74,0.00,,---,0.00,VWS V13.01,2013-05-23 11:02:00,
2013-05-23 07:07:00,67.5,58.9,0.00,WSW,245,3.1,8.1,74,0.00,,---,0.00,VWS V13.01,2013-05-23 11:07:00,
2013-05-23 07:12:00,67.6,58.7,0.00,SW,235,4.0,8.7,73,0.00,,---,0.00,VWS V13.01,2013-05-23 11:12:00,
2013-05-23 07:17:00,67.6,58.7,0.00,West,264,3.6,8.7,73,0.00,,---,0.00,VWS V13.01,2013-05-23 11:17:00,
2013-05-23 07:23:00,67.8,58.9,0.00,West,278,5.8,8.3,73,0.00,,---,0.00,VWS V13.01,2013-05-23 11:23:00,
2013-05-23 07:28:00,67.8,58.5,0.00,SW,235,5.8,8.3,72,0.00,,---,0.00,VWS V13.01,2013-05-23 11:28:00,
2013-05-23 07:33:00,68.0,58.3,0.00,WSW,242,5.4,9.6,71,0.00,,---,0.00,VWS V13.01,2013-05-23 11:33:00,
2013-05-23 07:38:00,68.2,58.4,0.00,WSW,250,4.0,12.8,71,0.00,,---,0.00,VWS V13.01,2013-05-23 11:38:00,
2013-05-23 07:43:00,68.4,58.6,0.00,SW,226,5.8,8.7,71,0.00,,---,0.00,VWS V13.01,2013-05-23 11:43:00,
2013-05-23 07:48:00,69.3,59.1,0.00,SW,235,5.8,11.0,70,0.00,,---,0.00,VWS V13.01,2013-05-23 11:48:00,
2013-05-23 07:53:00,70.3,59.7,0.00,SW,218,3.6,11.0,69,0.00,,---,0.00,VWS V13.01,2013-05-23 11:53:00,
2013-05-23 07:58:00,70.7,59.2,0.00,WSW,258,3.6,14.5,67,0.00,,---,0.00,VWS V13.01,2013-05-23 11:58:00,
2013-05-23 08:03:00,70.3,58.5,0.00,SW,219,5.4,13.6,66,0.00,,---,0.00,VWS V13.01,2013-05-23 12:03:00,
2013-05-23 08:08:00,70.7,59.2,0.00,West,266,7.2,13.6,67,0.00,,---,0.00,VWS V13.01,2013-05-23 12:08:00,
2013-05-23 08:13:00,71.4,59.9,0.00,WSW,240,8.1,10.1,67,0.00,,---,0.00,VWS V13.01,2013-05-23 12:13:00,
2013-05-23 08:18:00,70.9,59.4,0.00,West,259,4.5,11.4,67,0.00,,---,0.00,VWS V13.01,2013-05-23 12:18:00,
2013-05-23 08:23:00,72.1,60.6,0.00,WSW,258,2.7,8.3,67,0.00,,---,0.00,VWS V13.01,2013-05-23 12:23:00,
2013-05-23 08:28:00,72.7,60.7,0.00,WSW,237,6.3,8.3,66,0.00,,---,0.00,VWS V13.01,2013-05-23 12:28:00,
2013-05-23 08:33:00,74.1,61.2,0.00,West,266,4.0,10.1,64,0.00,,---,0.00,VWS V13.01,2013-05-23 12:33:00,
2013-05-23 08:38:00,74.8,61.4,0.00,West,264,3.6,10.1,63,0.00,,---,0.00,VWS V13.01,2013-05-23 12:38:00,
2013-05-23 08:43:00,74.8,60.5,0.00,SW,236,5.4,8.7,61,0.00,,---,0.00,VWS V13.01,2013-05-23 12:43:00,
2013-05-23 08:48:00,75.0,60.7,0.00,SSW,213,5.4,8.7,61,0.00,,---,0.00,VWS V13.01,2013-05-23 12:48:00,
2013-05-23 08:53:00,74.3,60.0,0.00,West,272,5.4,9.6,61,0.00,,---,0.00,VWS V13.01,2013-05-23 12:53:00,
2013-05-23 08:59:00,73.4,59.6,0.00,SW,231,5.8,9.6,62,0.00,,---,0.00,VWS V13.01,2013-05-23 12:59:00,
2013-05-23 09:04:00,74.3,60.5,0.00,WSW,241,5.4,6.3,62,0.00,,---,0.00,VWS V13.01,2013-05-23 13:04:00,
2013-05-23 09:09:00,75.4,61.0,0.00,West,264,6.3,10.5,61,0.00,,---,0.00,VWS V13.01,2013-05-23 13:09:00,
2013-05-23 09:14:00,76.5,61.6,0.00,SW,221,5.4,11.0,60,0.00,,---,0.00,VWS V13.01,2013-05-23 13:14:00,
2013-05-23 09:19:00,75.0,59.3,0.00,WSW,252,7.6,15.4,58,0.00,,---,0.00,VWS V13.01,2013-05-23 13:19:00,
2013-05-23 09:24:00,74.1,58.9,0.00,WSW,258,5.4,12.8,59,0.00,,---,0.00,VWS V13.01,2013-05-23 13:24:00,
2013-05-23 09:29:00,73.4,59.2,0.00,WSW,258,5.4,12.8,61,0.00,,---,0.00,VWS V13.01,2013-05-23 13:29:00,
2013-05-23 09:34:00,72.5,58.8,0.00,SW,229,4.9,12.8,62,0.00,,---,0.00,VWS V13.01,2013-05-23 13:34:00,
2013-05-23 09:39:00,71.6,58.8,0.00,WSW,245,5.4,15.0,64,0.00,,---,0.00,VWS V13.01,2013-05-23 13:39:00,
2013-05-23 09:44:00,71.1,59.1,0.00,WSW,246,6.3,12.3,66,0.00,,---,0.00,VWS V13.01,2013-05-23 13:44:00,
2013-05-23 09:49:00,70.7,59.2,0.00,SSW,204,10.5,12.3,67,0.00,,---,0.00,VWS V13.01,2013-05-23 13:49:00,
2013-05-23 09:54:00,70.2,59.1,0.00,SW,226,5.4,8.7,68,0.00,,---,0.00,VWS V13.01,2013-05-23 13:54:00,
2013-05-23 09:59:00,69.6,59.0,0.00,WSW,248,3.6,10.5,69,0.00,,---,0.00,VWS V13.01,2013-05-23 13:59:00,
2013-05-23 10:04:00,69.6,59.0,0.00,SW,228,3.1,10.1,69,0.00,,---,0.00,VWS V13.01,2013-05-23 14:04:00,
2013-05-23 10:09:00,69.6,59.0,0.00,WSW,250,3.1,10.1,69,0.00,,---,0.00,VWS V13.01,2013-05-23 14:09:00,
2013-05-23 10:14:00,69.8,59.2,0.00,SW,226,3.1,6.3,69,0.00,,---,0.00,VWS V13.01,2013-05-23 14:14:00,
2013-05-23 10:19:00,70.2,59.1,0.00,SW,234,2.7,8.3,68,0.00,,---,0.00,VWS V13.01,2013-05-23 14:19:00,
2013-05-23 10:24:00,71.1,60.0,0.00,SW,234,6.3,9.6,68,0.00,,---,0.00,VWS V13.01,2013-05-23 14:24:00,
2013-05-23 10:29:00,71.8,59.4,0.00,SW,224,5.8,9.6,65,0.00,,---,0.00,VWS V13.01,2013-05-23 14:29:00,
2013-05-23 10:34:00,71.8,59.0,0.00,SW,228,3.6,8.7,64,0.00,,---,0.00,VWS V13.01,2013-05-23 14:34:00,
2013-05-23 10:39:00,71.8,58.5,0.00,West,260,4.9,8.7,63,0.00,,---,0.00,VWS V13.01,2013-05-23 14:39:00,
2013-05-23 10:45:00,72.3,58.6,0.00,WSW,256,3.6,7.6,62,0.00,,---,0.00,VWS V13.01,2013-05-23 14:45:00,
2013-05-23 10:50:00,72.5,58.3,0.00,WSW,251,6.3,11.4,61,0.00,,---,0.00,VWS V13.01,2013-05-23 14:50:00,
2013-05-23 10:55:00,73.2,59.0,0.00,SW,230,8.3,8.7,61,0.00,,---,0.00,VWS V13.01,2013-05-23 14:55:00,
2013-05-23 11:00:00,73.9,58.7,0.00,West,260,5.4,5.4,59,0.00,,---,0.00,VWS V13.01,2013-05-23 15:00:00,
2013-05-23 11:05:00,74.7,58.9,0.00,West,263,8.7,8.7,58,0.00,,---,0.00,VWS V13.01,2013-05-23 15:05:00,
2013-05-23 11:10:00,75.4,58.6,0.00,South,187,8.1,10.1,56,0.00,,---,0.00,VWS V13.01,2013-05-23 15:10:00,
2013-05-23 11:15:00,75.2,57.9,0.00,SW,217,3.6,10.1,55,0.00,,---,0.00,VWS V13.01,2013-05-23 15:15:00,
2013-05-23 11:20:00,75.6,58.3,0.00,SW,217,10.5,10.5,55,0.00,,---,0.00,VWS V13.01,2013-05-23 15:20:00,
2013-05-23 11:25:00,75.0,57.8,0.00,WSW,254,3.6,10.5,55,0.00,,---,0.00,VWS V13.01,2013-05-23 15:25:00,
2013-05-23 11:30:00,74.8,57.6,0.00,West,271,4.0,4.0,55,0.00,,---,0.00,VWS V13.01,2013-05-23 15:30:00,
2013-05-23 11:35:00,76.3,59.5,0.00,SW,230,5.8,8.3,56,0.00,,---,0.00,VWS V13.01,2013-05-23 15:35:00,
2013-05-23 11:40:00,76.5,58.1,0.00,SW,231,6.3,7.6,53,0.00,,---,0.00,VWS V13.01,2013-05-23 15:40:00,
2013-05-23 11:45:00,75.9,56.5,0.00,SW,229,3.6,8.7,51,0.00,,---,0.00,VWS V13.01,2013-05-23 15:45:00,
2013-05-23 11:50:00,76.1,56.1,0.00,WSW,254,4.9,6.3,50,0.00,,---,0.00,VWS V13.01,2013-05-23 15:50:00,
2013-05-23 11:55:00,75.9,56.5,0.00,WNW,283,5.8,11.0,51,0.00,,---,0.00,VWS V13.01,2013-05-23 15:55:00,
2013-05-23 12:00:00,75.7,56.3,0.00,SW,231,5.8,6.3,51,0.00,,---,0.00,VWS V13.01,2013-05-23 16:00:00,
2013-05-23 12:05:00,75.9,56.0,0.00,West,263,7.2,7.6,50,0.00,,---,0.00,VWS V13.01,2013-05-23 16:05:00,
2013-05-23 12:10:00,75.6,55.6,0.00,West,270,3.6,5.8,50,0.00,,---,0.00,VWS V13.01,2013-05-23 16:10:00,
2013-05-23 12:16:00,75.7,55.2,0.00,WSW,252,4.9,8.7,49,0.00,,---,0.00,VWS V13.01,2013-05-23 16:16:00,
2013-05-23 12:21:00,75.6,54.5,0.00,WSW,252,5.8,6.3,48,0.00,,---,0.00,VWS V13.01,2013-05-23 16:21:00,
2013-05-23 12:26:00,75.2,54.8,0.00,West,272,3.6,11.4,49,0.00,,---,0.00,VWS V13.01,2013-05-23 16:26:00,
2013-05-23 12:31:00,74.8,54.4,0.00,WSW,251,3.6,6.3,49,0.00,,---,0.00,VWS V13.01,2013-05-23 16:31:00,
2013-05-23 12:36:00,75.4,55.5,0.00,SW,224,4.0,10.5,50,0.00,,---,0.00,VWS V13.01,2013-05-23 16:36:00,
2013-05-23 12:41:00,75.2,55.3,0.00,SW,233,5.4,6.3,50,0.00,,---,0.00,VWS V13.01,2013-05-23 16:41:00,
2013-05-23 12:46:00,75.0,56.2,0.00,SSE,168,5.8,6.7,52,0.00,,---,0.00,VWS V13.01,2013-05-23 16:46:00,
2013-05-23 12:51:00,75.9,58.1,0.00,SW,217,3.6,6.3,54,0.00,,---,0.00,VWS V13.01,2013-05-23 16:51:00,
2013-05-23 12:56:00,76.6,57.7,0.00,West,265,4.9,12.8,52,0.00,,---,0.00,VWS V13.01,2013-05-23 16:56:00,
2013-05-23 13:01:00,77.2,57.1,0.00,SW,224,5.4,6.3,50,0.00,,---,0.00,VWS V13.01,2013-05-23 17:01:00,
2013-05-23 13:06:00,77.5,57.5,0.00,WSW,257,5.4,8.1,50,0.00,,---,0.00,VWS V13.01,2013-05-23 17:06:00,
2013-05-23 13:11:00,77.0,55.2,0.00,WSW,238,11.4,13.2,47,0.00,,---,0.00,VWS V13.01,2013-05-23 17:11:00,
2013-05-23 13:16:00,76.3,55.2,0.00,SSW,204,3.6,13.2,48,0.00,,---,0.00,VWS V13.01,2013-05-23 17:16:00,
2013-05-23 13:21:00,76.6,56.1,0.00,WSW,241,5.4,6.7,49,0.00,,---,0.00,VWS V13.01,2013-05-23 17:21:00,
2013-05-23 13:26:00,77.2,55.4,0.00,WSW,250,3.1,8.1,47,0.00,,---,0.00,VWS V13.01,2013-05-23 17:26:00,
2013-05-23 13:32:00,77.9,55.5,0.00,SW,216,5.8,8.3,46,0.00,,---,0.00,VWS V13.01,2013-05-23 17:32:00,
2013-05-23 13:37:00,77.9,54.9,0.00,West,268,7.2,11.0,45,0.00,,---,0.00,VWS V13.01,2013-05-23 17:37:00,
2013-05-23 13:42:00,78.6,56.1,0.00,SSW,209,9.2,10.1,46,0.00,,---,0.00,VWS V13.01,2013-05-23 17:42:00,
2013-05-23 13:47:00,78.1,55.0,0.00,West,263,3.1,10.1,45,0.00,,---,0.00,VWS V13.01,2013-05-23 17:47:00,
2013-05-23 13:52:00,77.9,54.3,0.00,WSW,256,5.4,10.1,44,0.00,,---,0.00,VWS V13.01,2013-05-23 17:52:00,
2013-05-23 13:57:00,77.4,54.4,0.00,West,265,5.8,10.1,45,0.00,,---,0.00,VWS V13.01,2013-05-23 17:57:00,
2013-05-23 14:02:00,77.0,54.1,0.00,West,279,4.0,10.1,45,0.00,,---,0.00,VWS V13.01,2013-05-23 18:02:00,
2013-05-23 14:07:00,76.3,54.0,0.00,WSW,248,3.6,10.1,46,0.00,,---,0.00,VWS V13.01,2013-05-23 18:07:00,
2013-05-23 14:12:00,75.6,53.3,0.00,West,265,3.6,7.6,46,0.00,,---,0.00,VWS V13.01,2013-05-23 18:12:00,
2013-05-23 14:17:00,74.8,53.8,0.00,WSW,258,8.1,8.3,48,0.00,,---,0.00,VWS V13.01,2013-05-23 18:17:00,
2013-05-23 14:22:00,74.5,54.6,0.00,West,265,7.6,12.3,50,0.00,,---,0.00,VWS V13.01,2013-05-23 18:22:00,
2013-05-23 14:27:00,74.1,54.3,0.00,WSW,254,4.5,12.3,50,0.00,,---,0.00,VWS V13.01,2013-05-23 18:27:00,
2013-05-23 14:32:00,73.8,54.5,0.00,WSW,237,4.9,6.3,51,0.00,,---,0.00,VWS V13.01,2013-05-23 18:32:00,
2013-05-23 14:37:00,73.2,54.6,0.00,SW,216,3.6,8.1,52,0.00,,---,0.00,VWS V13.01,2013-05-23 18:37:00,
2013-05-23 14:42:00,72.7,55.1,0.00,SW,226,3.6,8.1,54,0.00,,---,0.00,VWS V13.01,2013-05-23 18:42:00,
2013-05-23 14:47:00,72.5,55.9,0.00,SW,233,3.6,8.1,56,0.00,,---,0.00,VWS V13.01,2013-05-23 18:47:00,
2013-05-23 14:52:00,72.0,56.9,0.00,West,279,4.0,7.6,59,0.00,,---,0.00,VWS V13.01,2013-05-23 18:52:00,
2013-05-23 14:57:00,71.2,57.6,0.00,WSW,256,2.7,7.6,62,0.00,,---,0.00,VWS V13.01,2013-05-23 18:57:00,
2013-05-23 15:03:00,70.9,58.5,0.00,West,260,3.1,7.2,65,0.00,,---,0.00,VWS V13.01,2013-05-23 19:03:00,
2013-05-23 15:08:00,70.7,59.2,0.00,WSW,251,2.2,7.2,67,0.00,,---,0.00,VWS V13.01,2013-05-23 19:08:00,
2013-05-23 15:13:00,70.5,59.9,0.00,SW,230,0.0,4.0,69,0.00,,---,0.00,VWS V13.01,2013-05-23 19:13:00,
2013-05-23 15:18:00,70.5,59.9,0.00,WSW,245,3.1,4.5,69,0.00,,---,0.00,VWS V13.01,2013-05-23 19:18:00,
2013-05-23 15:23:00,70.7,60.0,0.00,WSW,252,3.1,5.4,69,0.00,,---,0.00,VWS V13.01,2013-05-23 19:23:00,
2013-05-23 15:28:00,71.1,60.0,0.00,West,260,4.0,6.3,68,0.00,,---,0.00,VWS V13.01,2013-05-23 19:28:00,
2013-05-23 15:33:00,71.2,60.6,0.00,West,264,2.2,5.8,69,0.00,,---,0.00,VWS V13.01,2013-05-23 19:33:00,
2013-05-23 15:38:00,71.2,59.7,0.00,SW,232,6.3,6.3,67,0.00,,---,0.00,VWS V13.01,2013-05-23 19:38:00,
2013-05-23 15:43:00,71.2,60.2,0.00,SSW,207,2.7,7.6,68,0.00,,---,0.00,VWS V13.01,2013-05-23 19:43:00,
2013-05-23 15:48:00,71.2,59.3,0.00,SW,236,3.1,7.6,66,0.00,,---,0.00,VWS V13.01,2013-05-23 19:48:00,
2013-05-23 15:53:00,71.4,59.0,0.00,WSW,257,3.6,7.6,65,0.00,,---,0.00,VWS V13.01,2013-05-23 19:53:00,
2013-05-23 15:58:00,71.4,59.0,0.00,SW,215,3.1,7.6,65,0.00,,---,0.00,VWS V13.01,2013-05-23 19:58:00,
2013-05-23 16:03:00,71.2,58.5,0.00,SW,220,3.1,7.6,64,0.00,,---,0.00,VWS V13.01,2013-05-23 20:03:00,
2013-05-23 16:08:00,71.2,58.0,0.00,WSW,258,3.6,7.6,63,0.00,,---,0.00,VWS V13.01,2013-05-23 20:08:00,
2013-05-23 16:13:00,71.4,58.6,0.00,WSW,251,3.6,5.8,64,0.00,,---,0.00,VWS V13.01,2013-05-23 20:13:00,
2013-05-23 16:19:00,71.8,58.5,0.00,West,263,4.0,6.3,63,0.00,,---,0.00,VWS V13.01,2013-05-23 20:19:00,
2013-05-23 16:24:00,72.1,58.4,0.00,West,276,3.1,4.0,62,0.00,,---,0.00,VWS V13.01,2013-05-23 20:24:00,
2013-05-23 16:29:00,72.9,57.7,0.00,West,269,2.7,6.3,59,0.00,,---,0.00,VWS V13.01,2013-05-23 20:29:00,
2013-05-23 16:34:00,72.7,57.5,0.00,WSW,237,7.6,7.6,59,0.00,,---,0.00,VWS V13.01,2013-05-23 20:34:00,
2013-05-23 16:39:00,72.9,57.2,0.00,West,270,4.0,7.6,58,0.00,,---,0.00,VWS V13.01,2013-05-23 20:39:00,
2013-05-23 16:44:00,73.2,57.1,0.00,WSW,252,5.4,9.6,57,0.00,,---,0.00,VWS V13.01,2013-05-23 20:44:00,
2013-05-23 16:49:00,73.2,57.1,0.00,WSW,238,8.7,9.6,57,0.00,,---,0.00,VWS V13.01,2013-05-23 20:49:00,
2013-05-23 16:54:00,73.0,56.4,0.00,West,277,6.3,8.3,56,0.00,,---,0.00,VWS V13.01,2013-05-23 20:54:00,
2013-05-23 16:59:00,73.4,56.8,0.00,WSW,256,3.1,8.3,56,0.00,,---,0.00,VWS V13.01,2013-05-23 20:59:00,
2013-05-23 17:04:00,73.6,56.4,0.00,West,268,5.8,7.6,55,0.00,,---,0.00,VWS V13.01,2013-05-23 21:04:00,
2013-05-23 17:09:00,73.9,56.3,0.00,WSW,240,6.3,8.7,54,0.00,,---,0.00,VWS V13.01,2013-05-23 21:09:00,
2013-05-23 17:14:00,73.6,55.4,0.00,SW,224,4.0,8.3,53,0.00,,---,0.00,VWS V13.01,2013-05-23 21:14:00,
2013-05-23 17:20:00,73.9,55.8,0.00,SSW,201,6.3,6.3,53,0.00,,---,0.00,VWS V13.01,2013-05-23 21:20:00,
2013-05-23 17:26:00,73.8,55.6,0.00,WNW,288,3.1,8.1,53,0.00,,---,0.00,VWS V13.01,2013-05-23 21:26:00,
2013-05-23 17:31:00,74.1,55.9,0.00,WSW,254,5.8,8.1,53,0.00,,---,0.00,VWS V13.01,2013-05-23 21:31:00,
2013-05-23 17:36:00,73.8,55.1,0.00,WSW,258,3.1,8.3,52,0.00,,---,0.00,VWS V13.01,2013-05-23 21:36:00,
2013-05-23 17:41:00,73.2,54.6,0.00,WSW,254,4.9,9.6,52,0.00,,---,0.00,VWS V13.01,2013-05-23 21:41:00,
2013-05-23 17:46:00,72.5,53.9,0.00,WSW,253,5.8,9.6,52,0.00,,---,0.00,VWS V13.01,2013-05-23 21:46:00,
2013-05-23 17:51:00,71.6,53.1,0.00,WSW,254,3.1,8.3,52,0.00,,---,0.00,VWS V13.01,2013-05-23 21:51:00,
2013-05-23 17:56:00,71.1,54.1,0.00,WSW,247,5.8,8.3,55,0.00,,---,0.00,VWS V13.01,2013-05-23 21:56:00,
2013-05-23 18:01:00,70.5,53.1,0.00,West,268,6.3,7.6,54,0.00,,---,0.00,VWS V13.01,2013-05-23 22:01:00,
2013-05-23 18:06:00,70.2,53.8,0.00,West,266,3.6,7.6,56,0.00,,---,0.00,VWS V13.01,2013-05-23 22:06:00,
2013-05-23 18:11:00,69.4,54.5,0.00,NE,54,2.2,3.1,59,0.00,,---,0.00,VWS V13.01,2013-05-23 22:11:00,
2013-05-23 18:16:00,68.2,54.7,0.00,WNW,299,0.0,4.9,62,0.00,,---,0.00,VWS V13.01,2013-05-23 22:16:00,
2013-05-23 18:21:00,66.7,54.2,0.00,NNW,332,6.3,8.7,64,0.00,,---,0.00,VWS V13.01,2013-05-23 22:21:00,
2013-05-23 18:26:00,66.0,54.3,0.00,North,349,0.0,8.7,66,0.00,,---,0.00,VWS V13.01,2013-05-23 22:26:00,
2013-05-23 18:31:00,65.1,53.5,0.00,North,0,5.8,8.1,66,0.00,,---,0.00,VWS V13.01,2013-05-23 22:31:00,
2013-05-23 18:37:00,64.0,52.5,0.00,West,277,3.6,8.1,66,0.00,,---,0.00,VWS V13.01,2013-05-23 22:37:00,
2013-05-23 18:42:00,63.0,51.8,0.00,NNE,25,3.1,5.8,67,0.00,,---,0.00,VWS V13.01,2013-05-23 22:42:00,
2013-05-23 18:47:00,62.2,52.0,0.00,West,273,0.0,5.8,69,0.00,,---,0.00,VWS V13.01,2013-05-23 22:47:00,
2013-05-23 18:52:00,61.7,51.8,0.00,NNE,19,6.3,6.3,70,0.00,,---,0.00,VWS V13.01,2013-05-23 22:52:00,
2013-05-23 18:57:00,61.5,51.7,0.00,NW,307,3.1,7.6,70,0.00,,---,0.00,VWS V13.01,2013-05-23 22:57:00,
2013-05-23 19:02:00,60.8,51.0,0.00,West,259,0.0,6.3,70,0.00,,---,0.00,VWS V13.01,2013-05-23 23:02:00,
2013-05-23 19:07:00,60.6,50.8,0.00,NW,318,0.0,6.3,70,0.00,,---,0.00,VWS V13.01,2013-05-23 23:07:00,
2013-05-23 19:12:00,60.3,50.8,0.00,NW,308,5.4,6.3,71,0.00,,---,0.00,VWS V13.01,2013-05-23 23:12:00,
2013-05-23 19:17:00,59.7,50.7,0.00,WNW,295,2.7,6.3,72,0.00,,---,0.00,VWS V13.01,2013-05-23 23:17:00,
2013-05-23 19:22:00,59.4,50.7,0.00,SE,139,0.0,6.3,73,0.00,,---,0.00,VWS V13.01,2013-05-23 23:22:00,
2013-05-23 19:27:00,58.8,50.2,0.00,NNW,341,2.7,6.3,73,0.00,,---,0.00,VWS V13.01,2013-05-23 23:27:00,
2013-05-23 19:32:00,58.5,49.8,0.00,North,353,3.1,6.3,73,0.00,,---,0.00,VWS V13.01,2013-05-23 23:32:00,
2013-05-23 19:38:00,58.1,49.9,0.00,NW,325,4.9,6.3,74,0.00,,---,0.00,VWS V13.01,2013-05-23 23:38:00,
2013-05-23 19:43:00,57.4,49.2,0.00,SW,232,0.0,0.0,74,0.00,,---,0.00,VWS V13.01,2013-05-23 23:43:00,
2013-05-23 19:48:00,57.0,48.8,0.00,NNW,328,0.0,0.0,74,0.00,,---,0.00,VWS V13.01,2013-05-23 23:48:00,
2013-05-23 19:53:00,56.8,48.7,0.00,West,272,0.0,4.0,74,0.00,,---,0.00,VWS V13.01,2013-05-23 23:53:00,
2013-05-23 19:58:00,56.8,48.3,0.00,NW,316,0.0,4.0,73,0.00,,---,0.00,VWS V13.01,2013-05-23 23:58:00,
2013-05-23 20:03:00,56.5,47.6,0.00,NW,314,0.0,5.4,72,0.00,,---,0.00,VWS V13.01,2013-05-24 00:03:00,
2013-05-23 20:08:00,56.1,47.2,0.00,SSW,198,0.0,5.4,72,0.00,,---,0.00,VWS V13.01,2013-05-24 00:08:00,
2013-05-23 20:13:00,55.9,47.4,0.00,NNW,337,0.0,3.6,73,0.00,,---,0.00,VWS V13.01,2013-05-24 00:13:00,
2013-05-23 20:18:00,56.1,47.6,0.00,NNW,329,0.0,3.6,73,0.00,,---,0.00,VWS V13.01,2013-05-24 00:18:00,
2013-05-23 20:23:00,56.3,47.8,0.00,West,259,0.0,0.0,73,0.00,,---,0.00,VWS V13.01,2013-05-24 00:23:00,
2013-05-23 20:28:00,56.1,47.6,0.00,NE,48,0.0,0.0,73,0.00,,---,0.00,VWS V13.01,2013-05-24 00:28:00,
2013-05-23 20:33:00,55.4,46.9,0.00,NW,321,0.0,2.7,73,0.00,,---,0.00,VWS V13.01,2013-05-24 00:33:00,
2013-05-23 20:38:00,55.4,47.3,0.00,NW,307,0.0,2.7,74,0.00,,---,0.00,VWS V13.01,2013-05-24 00:38:00,
2013-05-23 20:43:00,54.9,47.1,0.00,West,267,0.0,0.0,75,0.00,,---,0.00,VWS V13.01,2013-05-24 00:43:00,
2013-05-23 20:48:00,54.7,46.9,0.00,NW,326,6.3,6.3,75,0.00,,---,0.00,VWS V13.01,2013-05-24 00:48:00,
2013-05-23 20:53:00,54.5,47.1,0.00,SSW,194,0.0,3.6,76,0.00,,---,0.00,VWS V13.01,2013-05-24 00:53:00,
2013-05-23 20:58:00,54.3,47.3,0.00,WNW,292,0.0,3.6,77,0.00,,---,0.00,VWS V13.01,2013-05-24 00:58:00,
2013-05-23 21:04:00,54.0,47.3,0.00,NNW,336,0.0,3.6,78,0.00,,---,0.00,VWS V13.01,2013-05-24 01:04:00,
2013-05-23 21:09:00,53.6,47.3,0.00,North,3,0.0,3.6,79,0.00,,---,0.00,VWS V13.01,2013-05-24 01:09:00,
2013-05-23 21:14:00,53.6,47.6,0.00,North,0,0.0,0.0,80,0.00,,---,0.00,VWS V13.01,2013-05-24 01:14:00,
2013-05-23 21:19:00,53.4,47.7,0.00,WNW,303,0.0,4.0,81,0.00,,---,0.00,VWS V13.01,2013-05-24 01:19:00,
2013-05-23 21:24:00,53.1,47.7,0.00,WSW,250,0.0,0.0,82,0.00,,---,0.00,VWS V13.01,2013-05-24 01:24:00,
2013-05-23 21:29:00,53.1,47.7,0.00,North,4,0.0,5.8,82,0.00,,---,0.00,VWS V13.01,2013-05-24 01:29:00,
2013-05-23 21:34:00,52.9,47.9,0.00,WSW,258,0.0,0.0,83,0.00,,---,0.00,VWS V13.01,2013-05-24 01:34:00,
2013-05-23 21:39:00,52.7,47.7,0.00,SSW,203,0.0,5.4,83,0.00,,---,0.00,VWS V13.01,2013-05-24 01:39:00,
2013-05-23 21:44:00,52.7,48.0,0.00,North,5,0.0,0.0,84,0.00,,---,0.00,VWS V13.01,2013-05-24 01:44:00,
2013-05-23 21:49:00,52.3,47.7,0.00,NNW,344,0.0,4.9,84,0.00,,---,0.00,VWS V13.01,2013-05-24 01:49:00,
2013-05-23 21:54:00,52.2,47.8,0.00,West,277,3.1,3.1,85,0.00,,---,0.00,VWS V13.01,2013-05-24 01:54:00,
2013-05-23 21:59:00,52.2,47.8,0.00,NNW,346,2.7,5.8,85,0.00,,---,0.00,VWS V13.01,2013-05-24 01:59:00,
2013-05-23 22:04:00,52.2,48.1,0.00,North,2,3.1,5.4,86,0.00,,---,0.00,VWS V13.01,2013-05-24 02:04:00,
2013-05-23 22:09:00,51.8,47.8,0.00,NNW,340,3.1,5.4,86,0.00,,---,0.00,VWS V13.01,2013-05-24 02:09:00,
2013-05-23 22:14:00,51.6,47.9,0.00,NW,325,4.9,4.9,87,0.00,,---,0.00,VWS V13.01,2013-05-24 02:14:00,
2013-05-23 22:19:00,51.4,47.7,0.00,NNE,15,0.0,5.8,87,0.00,,---,0.00,VWS V13.01,2013-05-24 02:19:00,
2013-05-23 22:24:00,51.1,47.3,0.00,NNE,17,3.1,7.6,87,0.00,,---,0.00,VWS V13.01,2013-05-24 02:24:00,
2013-05-23 22:29:00,50.7,46.7,0.00,NE,49,11.0,11.0,86,0.00,,---,0.00,VWS V13.01,2013-05-24 02:29:00,
2013-05-23 22:34:00,50.2,46.2,0.00,NNE,28,8.1,8.3,86,0.00,,---,0.00,VWS V13.01,2013-05-24 02:34:00,
2013-05-23 22:39:00,49.6,45.6,0.00,NNW,341,4.5,8.3,86,0.00,,---,0.00,VWS V13.01,2013-05-24 02:39:00,
2013-05-23 22:45:00,49.5,45.8,0.00,NNE,25,4.0,10.1,87,0.00,,---,0.00,VWS V13.01,2013-05-24 02:45:00,
2013-05-23 22:50:00,49.3,45.9,0.00,NNE,23,9.2,10.1,88,0.00,,---,0.00,VWS V13.01,2013-05-24 02:50:00,
2013-05-23 22:55:00,48.9,45.2,0.00,NNE,13,4.9,9.2,87,0.00,,---,0.00,VWS V13.01,2013-05-24 02:55:00,
2013-05-23 23:00:00,48.7,45.0,0.00,NNW,334,5.4,10.5,87,0.00,,---,0.00,VWS V13.01,2013-05-24 03:00:00,
2013-05-23 23:05:00,48.2,44.2,0.00,NNE,19,3.6,8.7,86,0.00,,---,0.00,VWS V13.01,2013-05-24 03:05:00,
2013-05-23 23:10:00,47.8,44.2,0.00,WNW,285,6.3,6.3,87,0.00,,---,0.00,VWS V13.01,2013-05-24 03:10:00,
2013-05-23 23:15:00,47.7,44.6,0.00,NNE,16,3.6,8.7,89,0.00,,---,0.00,VWS V13.01,2013-05-24 03:15:00,
2013-05-23 23:20:00,47.7,44.6,0.00,NNW,348,3.6,4.0,89,0.00,,---,0.00,VWS V13.01,2013-05-24 03:20:00,
2013-05-23 23:25:00,47.7,44.9,0.00,NNW,342,5.4,9.2,90,0.00,,---,0.00,VWS V13.01,2013-05-24 03:25:00,
2013-05-23 23:30:00,47.5,44.4,0.00,North,11,3.6,8.1,89,0.00,,---,0.00,VWS V13.01,2013-05-24 03:30:00,
2013-05-23 23:35:00,47.1,43.8,0.00,NW,317,6.3,9.6,88,0.00,,---,0.00,VWS V13.01,2013-05-24 03:35:00,
2013-05-23 23:40:00,46.8,43.7,0.00,North,0,6.3,8.1,89,0.00,,---,0.00,VWS V13.01,2013-05-24 03:40:00,
2013-05-23 23:45:00,46.4,43.3,0.00,NW,323,5.4,10.1,89,0.00,,---,0.00,VWS V13.01,2013-05-24 03:45:00,
2013-05-23 23:50:00,45.9,42.8,0.00,NNE,14,13.2,16.3,89,0.00,,---,0.00,VWS V13.01,2013-05-24 03:50:00,
2013-05-23 23:55:00,45.7,42.6,0.00,North,10,2.7,16.3,89,0.00,,---,0.00,VWS V13.01,2013-05-24 03:55:00,